Terminal Aerodrome Forecast
Issued by NWS

Home | Current Version | Previous Version | Text Only | Print | Product List | Glossary On
Versions: 1 2 3 4 5 6 7 8 9 10 11 12 13 14 15 16
442
FTUS46 KLOX 081729
TAFOXR
TAF
KOXR 081729Z 0818/0918 06025G35KT P6SM SKC
     FM082100 07015G25KT P6SM SKC
     FM090400 06014KT P6SM SKC=

USA.gov is the U.S. government's official web portal to all federal, state and local government web resources and services.